Regional Weather Roundup
Issued by NWS

Home | Current Version | Previous Version | Text Only | Print | Product List | Glossary On
Versions: 1 2 3 4 5 6 7 8 9 10 11 12 13 14 15 16 17 18 19 20 21 22 23 24 25 26 27 28 29 30 31 32 33 34 35 36 37 38 39 40 41 42 43 44 45 46
000
ASUS45 KPSR 300210
RWRAZ

ARIZONA REGIONAL HOURLY WEATHER ROUNDUP
NATIONAL WEATHER SERVICE TUCSON AZ
700 PM MST MON MAY 29 2017

NOTE: FAIR INDICATES FEW OR NO CLOUDS BELOW 12,000 FEET WITH NO
SIGNIFICANT WEATHER AND/OR OBSTRUCTIONS TO VISIBILITY.

AZZ001>003-036-300300-
NORTHWEST ARIZONA

CITY           SKY/WX    TMP DP  RH WIND       PRES   REMARKS
BULLHEAD CITY  PTCLDY   102  19   5 SW3       29.66S
KINGMAN        PTCLDY    88  23   9 SW12      29.88R
$$

AZZ004>008-015-016-018-300300-
NORTH CENTRAL ARIZONA

CITY           SKY/WX    TMP DP  RH WIND       PRES   REMARKS
GRAND CANYON   PTCLDY    72  25  17 E6        30.13S
WILLIAMS       PTCLDY    72  25  17 E7        30.13R
PRESCOTT       PTCLDY    80  16   9 SW10      30.01R
FLAGSTAFF      PTCLDY    70  23  17 NE13      30.15R
PAYSON         CLEAR     81  14   8 W9        30.04R
PAGE           CLEAR     85  17   8 NE5       29.95S
$$

AZZ009>014-017-300300-
NORTHEAST ARIZONA

CITY           SKY/WX    TMP DP  RH WIND       PRES   REMARKS
WINSLOW        PTCLDY    82  23  11 N8        30.00R
SAINT JOHNS    MOCLDY    74  28  18 S17       30.06F
WINDOW ROCK    PTCLDY    75  18  11 N7        30.13R
SHOW LOW       MOCLDY    66  27  22 NE9       30.15R
$$

AZZ023-300300-
GREATER PHOENIX AREA

CITY           SKY/WX    TMP DP  RH WIND       PRES   REMARKS
PHOENIX        CLOUDY   100  19   5 NW13      29.69S
BUCKEYE        MOCLDY    97  23   7 W6        29.71R
GLENDALE       MOCLDY   100  18   5 CALM      29.72R
DEER VALLEY    MOCLDY    96  13   5 W8        29.72S
SCOTTSDALE     MOCLDY    97  19   6 NW5       29.74S
MESA-FALCON    PTCLDY    97  27   8 W5        29.72
MESA-GATEWAY   MOCLDY    97  21   6 NW6       29.73R
CHANDLER       CLEAR     99  19   6 SW7       29.71S
$$

AZZ027-028-300300-
SOUTHWEST MARICOPA COUNTY AND PINAL COUNTY

CITY           SKY/WX    TMP DP  RH WIND       PRES   REMARKS
CASA GRANDE    MOCLDY    97  22   7 NW7       29.73R
$$

AZZ503-504-507>509-300300-
SOUTHEAST ARIZONA

CITY           SKY/WX    TMP DP  RH WIND       PRES   REMARKS
TUCSON         CLEAR     95  15   5 NW12      29.81R
DAVIS-MONTHAN  PTCLDY    94  15   5 NW12      29.80R
RYAN FIELD     CLEAR     95  18   6 NW10G16   29.80R
NOGALES        PTCLDY    87  15   7 SW12      29.92R
SIERRA VISTA   CLEAR     85  17   8 W13       29.97R
DOUGLAS        CLEAR     88  13   6 SW7       29.91R
SAFFORD        MOCLDY    88  34  14 NE23G30   29.83R
$$

AZZ020-021-025-026-031-300300-
SOUTHWEST ARIZONA

CITY           SKY/WX    TMP DP  RH WIND       PRES   REMARKS
YUMA           MOCLDY    96  41  15 W7        29.67R
$$

CAZ031-033-041-043-047-048-061-300300-
SOUTHERN CALIFORNIA

CITY           SKY/WX    TMP DP  RH WIND       PRES   REMARKS
DOWNTOWN L.A.  NOT AVBL
L.A. AIRPORT   PTSUNNY   62  56  80 W10       29.88S
SAN DIEGO      CLOUDY    64  56  75 W7        29.91R
BURBANK        SUNNY     68  54  60 S10       29.85S
ONTARIO        MOCLDY    74  55  51 W12       29.85R
RIVERSIDE      CLEAR     73  56  54 W14       29.84R
PALM SPRINGS   CLEAR     97  48  18 NW17      29.70R
EL CENTRO NAS  MOCLDY   101  25   7 W7        29.66S
IMPERIAL       MOCLDY   101  40  12 SE6       29.64S
BLYTHE         MOCLDY   100  24   6 SW12G22   29.67R
NEEDLES        PTCLDY   103   7   3 SW15      29.68R
$$

NVZ020-UTZ003-300300-
SOUTHERN NEVADA-UTAH

CITY           SKY/WX    TMP DP  RH WIND       PRES   REMARKS
LAS VEGAS      MOCLDY    96  10   4 CALM      29.76S
SALT LAKE CITY PTCLDY    80  42  25 N9        30.02S
$$

NMZ009-TXZ055-300300-
NEW MEXICO-WEST TEXAS

CITY           SKY/WX    TMP DP  RH WIND       PRES   REMARKS
ALBUQUERQUE    CLOUDY    68  39  34 E15       30.16R
EL PASO        MOCLDY    84  33  16 E15       29.98R
$$


........................KEY........................
SKY/WX - SKY CONDITION/WEATHER
TMP    - TEMPERATURE IN FAHRENHEIT
DP     - DEWPOINT IN FAHRENHEIT
RH     - RELATIVE HUMIDITY IN PERCENT
WIND   - DIRECTION AND SPEED IN MILES PER HOUR (MPH)
VRB    - VARIABLE WIND DIRECTION
PRES   - MEAN SEA LEVEL PRESSURE IN INCHES OF MERCURY
         F - FALLING PRESSURE   R - RISING PRESSURE
         S - STEADY PRESSURE
VSB    - VISIBILITY IN MILES
HX     - HEAT INDEX IN FAHRENHEIT
WCI    - WIND CHILL INDEX IN FAHRENHEIT
TC     - TEMPERATURE IN CELSIUS WHICH IS ALSO KNOWN AS
         TEMPERATURE IN CENTIGRADE
AFB    - AIR FORCE BASE
         LUKE AFB IS LUKE AIR FORCE BASE
         DAVIS-MONTHAN IS DAVIS-MONTHAN AIR FORCE BASE
NAS    - NAVAL AIR STATION
         EL CENTRO NAS IS EL CENTRO NAVAL AIR STATION
N/A    - NOT AVAILABLE





USA.gov is the U.S. government's official web portal to all federal, state and local government web resources and services.